This is the latest recevied weather packets stored in our database for station/object DO1YM-13. If no packets are shown the sender has not sent any weather packets the latest 10 day(s).
| Time | Temp. | Humidity | Pressure | Rain* | Wind** | Luminosity | Snow |
|---|---|---|---|---|---|---|---|
| 1787649348 | 21.67° C | 50% | 1014.2 hPa | 0 mm | - | 628 W/m² | - |
| 1787649047 | 22.22° C | 52% | 1014.2 hPa | 0 mm | - | 668 W/m² | - |
| 1787648748 | 21.67° C | 51% | 1014.2 hPa | 0 mm | - | 684 W/m² | - |
| 1787648448 | 21.11° C | 54% | 1014.2 hPa | 0 mm | - | 665 W/m² | - |
| 1787648148 | 21.67° C | 54% | 1014.2 hPa | 0 mm | - | 656 W/m² | - |
| 1787647848 | 21.11° C | 55% | 1014.2 hPa | 0 mm | - | 558 W/m² | - |
| 1787647547 | 21.67° C | 53% | 1014.6 hPa | 0 mm | - | 540 W/m² | - |
| 1787647250 | 21.11° C | 57% | 1014.6 hPa | 0 mm | - | 529 W/m² | - |
| 1787646948 | 21.67° C | 55% | 1014.2 hPa | 0 mm | - | 511 W/m² | - |
| 1787646648 | 21.11° C | 59% | 1014.6 hPa | 0 mm | - | 558 W/m² | - |
| 1787646348 | 20.56° C | 59% | 1014.6 hPa | 0 mm | - | 567 W/m² | - |
| 1787646048 | 20.56° C | 62% | 1014.6 hPa | 0 mm | - | 543 W/m² | - |
| 1787645748 | 20.56° C | 61% | 1014.6 hPa | 0 mm | - | 449 W/m² | - |
| 1787645448 | 20° C | 62% | 1014.6 hPa | 0 mm | - | 441 W/m² | - |
| 1787645147 | 20° C | 63% | 1014.6 hPa | 0 mm | - | 422 W/m² | - |
| 1787644848 | 20° C | 62% | 1014.6 hPa | 0 mm | - | 399 W/m² | - |
| 1787644549 | 20° C | 62% | 1014.6 hPa | 0 mm | - | 385 W/m² | - |
| 1787644248 | 19.44° C | 66% | 1014.6 hPa | 0 mm | - | 370 W/m² | - |
| 1787643947 | 18.89° C | 67% | 1014.6 hPa | 0 mm | - | 347 W/m² | - |
| 1787643647 | 18.33° C | 71% | 1014.6 hPa | 0 mm | - | 321 W/m² | - |
| 1787643348 | 18.33° C | 72% | 1014.2 hPa | 0 mm | - | 70 W/m² | - |
| 1787643048 | 18.33° C | 72% | 1014.2 hPa | 0 mm | - | 63 W/m² | - |
| 1787642747 | 17.78° C | 73% | 1014.6 hPa | 0 mm | - | 62 W/m² | - |
| 1787642447 | 17.22° C | 74% | 1014.2 hPa | 0 mm | - | 60 W/m² | - |
| 1787642147 | 17.22° C | 78% | 1014.2 hPa | 0 mm | - | 58 W/m² | - |
* Rain latest hour (hover to see other rain measurements)
** Current wind speed in m/s (hover to see current wind gust speed)